This is the latest recevied weather packets stored in our database for station/object WW5JC. If no packets are shown the sender has not sent any weather packets the latest 10 day(s).
| Time | Temp. | Humidity | Pressure | Rain* | Wind** | Luminosity | Snow |
|---|---|---|---|---|---|---|---|
| 1777615998 | 12.22° C | 93% | 1018.6 hPa | 0 mm | - | 0 W/m² | - |
| 1777615694 | 12.78° C | 93% | 1018.6 hPa | 0 mm | - | 0 W/m² | - |
| 1777615391 | 12.22° C | 91% | 1018.9 hPa | 0 mm | - | 0 W/m² | - |
| 1777615091 | 12.78° C | 92% | 1019 hPa | 0 mm | - | 0 W/m² | - |
| 1777614786 | 12.78° C | 92% | 1019 hPa | 0 mm | - | 0 W/m² | - |
| 1777614482 | 12.78° C | 91% | 1019.1 hPa | 0 mm | - | 0 W/m² | - |
| 1777614178 | 12.78° C | 90% | 1018.9 hPa | 0 mm | - | 0 W/m² | - |
| 1777613878 | 12.78° C | 91% | 1018.6 hPa | 0 mm | - | 0 W/m² | - |
| 1777613576 | 12.78° C | 93% | 1018.7 hPa | 0 mm | - | 0 W/m² | - |
| 1777613272 | 12.78° C | 94% | 1018.6 hPa | 0 mm | - | 0 W/m² | - |
| 1777612969 | 12.78° C | 94% | 1018.6 hPa | 0 mm | - | 0 W/m² | - |
| 1777612664 | 12.78° C | 93% | 1018.7 hPa | 0 mm | - | 0 W/m² | - |
| 1777612362 | 12.78° C | 93% | 1018.7 hPa | 0 mm | - | 0 W/m² | - |
| 1777612062 | 13.33° C | 92% | 1018.9 hPa | 0 mm | - | 0 W/m² | - |
| 1777611757 | 13.33° C | 91% | 1018.9 hPa | 0 mm | - | 0 W/m² | - |
| 1777611454 | 13.89° C | 90% | 1019.1 hPa | 0 mm | - | 0 W/m² | - |
| 1777611151 | 13.89° C | 90% | 1018.7 hPa | 0 mm | - | 0 W/m² | - |
| 1777610846 | 13.89° C | 90% | 1018.8 hPa | 0 mm | - | 0 W/m² | - |
| 1777610542 | 13.89° C | 89% | 1018.8 hPa | 0 mm | - | 0 W/m² | - |
| 1777610237 | 13.89° C | 88% | 1018.8 hPa | 0 mm | - | 0 W/m² | - |
| 1777609934 | 13.89° C | 87% | 1018.6 hPa | 0 mm | - | 0 W/m² | - |
| 1777609630 | 13.89° C | 85% | 1018.7 hPa | 0 mm | - | 0 W/m² | - |
| 1777609328 | 14.44° C | 85% | 1018.6 hPa | 0 mm | - | 0 W/m² | - |
| 1777609025 | 14.44° C | 86% | 1018.6 hPa | 0 mm | - | 0 W/m² | - |
| 1777608722 | 14.44° C | 89% | 1018.6 hPa | 0 mm | - | 0 W/m² | - |
* Rain latest hour (hover to see other rain measurements)
** Current wind speed in m/s (hover to see current wind gust speed)